Meteo Giornale » Osservazioni meteo Stati Uniti (USA) » Los Angeles

ore: 18:53 - Osservazioni Meteo Los Angeles
Lat. 33° 56' N Lon. 118° 23' W Alt. 38 metri s.l.m.

molto_nuvoloso America/Los_Angeles

22 °C

Molto Nuvoloso

Temp. 24 Ore

19 °C

24 °C

Ovest

14.8 Km/h

Dew point 18 °C

Umidità 78 %

Visibilità  10 Km

Il sole sorge alle ore 05:59

Il sole tramonta alle ore 20:01

Data e Ora Cielo e Fenomeni T °C DP °C Um. % Pres. hPa Vis. km Vento km/h
Oggi h: 18:53 molto_nuvoloso Molto Nuvoloso 22 18 78 1011 10 O 14.8
Oggi h: 17:53 molto_nuvoloso Molto Nuvoloso 22 18 78 1011 10 O 16.7
Oggi h: 16:53 molto_nuvoloso Molto Nuvoloso 22 18 78 1011 10 O 22.2
Oggi h: 15:53 molto_nuvoloso Molto Nuvoloso 23 18 73 1011 10 O/SO 16.7
Oggi h: 14:53 molto_nuvoloso Molto Nuvoloso 23 18 73 1012 10 O/SO 16.7
Oggi h: 13:53 molto_nuvoloso Molto Nuvoloso 24 18 69 1012 13 O 20.3
Oggi h: 12:53 molto_nuvoloso Molto Nuvoloso 24 18 69 1013 13 O 22.2
Oggi h: 11:53 molto_nuvoloso Molto Nuvoloso 24 18 69 1013 13 O 18.5
Oggi h: 10:53 molto_nuvoloso Molto Nuvoloso 23 18 73 1014 13 O/SO 13
Oggi h: 08:53 molto_nuvoloso Molto Nuvoloso 23 18 73 1013 13 N 0
Oggi h: 08:15 molto_nuvoloso Molto Nuvoloso 22 18 78 1013 13 N 5.5
Oggi h: 07:53 molto_nuvoloso Molto Nuvoloso 21 18 82 1012 13 S/SE 7.4
Oggi h: 07:12 molto_nuvoloso Molto Nuvoloso 22 18 78 1012 13 N 0
Oggi h: 05:53 nuvoloso Nuvoloso 21 18 82 1012 10 S/SO 7.4
Oggi h: 04:53 molto_nuvoloso Molto Nuvoloso 21 18 82 1011 10 N 0
Oggi h: 03:53 molto_nuvoloso Molto Nuvoloso 21 17 77 1011 10 N 0
Oggi h: 03:24 molto_nuvoloso Molto Nuvoloso 21 17 77 1011 10 N 0
Oggi h: 02:53 poco_nuvoloso Poco Nuvoloso 20 17 82 1012 10 N 0
Oggi h: 01:53 poco_nuvoloso Poco Nuvoloso 20 17 82 1012 10 N 5.5
Oggi h: 00:53 poco_nuvoloso Poco Nuvoloso 19 17 88 1012 10 S 7.4
Ieri h: 23:53 poco_nuvoloso Poco Nuvoloso 19 17 88 1012 10 SO 9.3
Ieri h: 22:53 poco_nuvoloso Poco Nuvoloso 19 17 88 1012 10 SO 7.4
Ieri h: 21:53 poco_nuvoloso Poco Nuvoloso 20 17 82 1012 10 O/SO 11.1
Ieri h: 20:53 poco_nuvoloso Poco Nuvoloso 20 17 82 1011 10 O/SO 13
Ieri h: 19:53 nuvoloso Nuvoloso 20 18 88 1010 10 SO 14.8